Content
SEND FEEDBACK

Daily
Averages
Monthly
Summary
United States of America

DRIPPING SPRINGS, TEXAS


Home > North America > United States > Texas
Elevation: 1160 feet     Latitude: 30 12N     Longitude: 098 13W

WEATHER
 
SELECT A DAY
Number of Records: 120,828;   Date Range: 6/5/09 - 8/29/14
 
SHARE

PRINT THIS DATA

[ ← Previous Day ]
WEATHER ALMANAC - FEBRUARY 13, 2013
[ Next Day → ]
[ °C ]   °F
Weather ElementAverageHighLow
Temperature45.5 °F59 °F (2:15 pm)35.6 °F (3:55 am)
Dewpoint31.9 °F33.8 °F (9:55 am)28.4 °F (3:35 pm)
Humidity62.2 %87 % (3:55 am)31 % (3:35 pm)
Barometer30.09 in30.17 in (9:15 am)30.03 in (2:55 pm)
Wind Speed4.6 mph10.4 mph (8:15 am)
Weather ElementAverage
Visibility9.9 mi
Wind DirectionSSW (197.1 °)

Weather ElementTotal
Precipitation0.03 in
Heating Degree Days17.7 (Base 65)
Averaged from 69 records on February 13, 2013
WEATHER CONDITIONS BREAKOUT
WIND DIRECTION BREAKOUT
WEATHER BY HOUR - FEBRUARY 13, 2013
[ °C ]   °F
Local TimeTemperatureDewpointHumidityBarometerVisibilityWind DirectionWind SpeedGust SpeedPrecipitationEventsConditions
12:35 AM41.0 °F32.0 °F70 %30.09 in10.0 miNW (320°)8.1 mphClear
12:55 AM41.0 °F32.0 °F70 %30.09 in10.0 miNW (320°)8.1 mphClear
1:15 AM41.0 °F32.0 °F70 %30.11 in10.0 miWest (270°)4.6 mphClear
1:35 AM39.2 °F32.0 °F75 %30.12 in10.0 miWSW (250°)5.8 mphClear
1:55 AM39.2 °F32.0 °F75 %30.12 in10.0 miWNW (300°)3.5 mphClear
2:15 AM37.4 °F32.0 °F81 %30.12 in10.0 miWNW (290°)3.5 mphClear
2:35 AM37.4 °F32.0 °F81 %30.12 in10.0 miWNW (290°)4.6 mphClear
2:55 AM37.4 °F32.0 °F81 %30.12 in10.0 miWNW (300°)3.5 mphClear
3:15 AM37.4 °F32.0 °F81 %30.12 in10.0 miNW (310°)4.6 mphClear
3:35 AM37.4 °F32.0 °F81 %30.12 in10.0 miWest (270°)3.5 mphClear
3:55 AM35.6 °F32.0 °F87 %30.12 in10.0 miCalmScattered Clouds
4:15 AM35.6 °F32.0 °F87 %30.12 in10.0 miCalmMostly Cloudy
4:35 AM35.6 °F32.0 °F87 %30.12 in10.0 miWest (260°)3.5 mphOvercast
4:55 AM35.6 °F32.0 °F87 %30.12 in10.0 miWNW (290°)4.6 mphScattered Clouds
5:15 AM35.6 °F32.0 °F87 %30.12 in10.0 miWNW (290°)4.6 mphClear
5:35 AM35.6 °F32.0 °F87 %30.13 in10.0 miWest (280°)3.5 mphClear
5:55 AM35.6 °F32.0 °F87 %30.14 in10.0 miCalmClear
6:15 AM35.6 °F32.0 °F87 %30.14 in10.0 miWest (270°)4.6 mphClear
6:35 AM35.6 °F32.0 °F87 %30.15 in10.0 miWest (280°)4.6 mphClear
6:55 AM35.6 °F32.0 °F87 %30.15 in10.0 miWest (280°)5.8 mphClear
7:15 AM37.4 °F32.0 °F81 %30.15 in10.0 miWNW (300°)5.8 mphClear
7:35 AM37.4 °F32.0 °F81 %30.15 in10.0 miNW (310°)5.8 mphClear
7:55 AM41.0 °F32.0 °F70 %30.16 in10.0 miWNW (300°)9.2 mphClear
8:15 AM41.0 °F32.0 °F70 %30.16 in10.0 miNW (320°)10.4 mphClear
8:35 AM42.8 °F32.0 °F66 %30.16 in10.0 miNW (310°)9.2 mphClear
9:15 AM44.6 °F32.0 °F61 %30.17 in10.0 miNW (320°)10.4 mphClear
9:55 AM46.4 °F33.8 °F62 %30.16 in10.0 miNNW (340°)5.8 mph0.03 inClear
10:15 AM48.2 °F32.0 °F54 %30.16 in10.0 miNNW (340°)9.2 mphClear
10:35 AM48.2 °F32.0 °F54 %30.15 in10.0 miNW (320°)8.1 mphClear
10:55 AM50.0 °F33.8 °F54 %30.14 in10.0 miNNW (330°)6.9 mphClear
11:15 AM50.0 °F33.8 °F54 %30.14 in10.0 miNW (320°)8.1 mphClear
11:35 AM51.8 °F33.8 °F50 %30.13 in10.0 miNorth (350°)9.2 mphClear
11:55 AM53.6 °F33.8 °F47 %30.12 in10.0 miNW (310°)4.6 mphClear
12:15 PM53.6 °F32.0 °F44 %30.10 in10.0 miNorth (350°)4.6 mphClear
12:35 PM55.4 °F32.0 °F41 %30.09 in10.0 miNW (320°)3.5 mphClear
12:55 PM55.4 °F32.0 °F41 %30.07 in10.0 miNorth (350°)9.2 mphClear
1:15 PM55.4 °F32.0 °F41 %30.07 in10.0 miNorth (350°)9.2 mphClear
1:35 PM57.2 °F32.0 °F38 %30.06 in10.0 miNNW (340°)5.8 mphClear
1:55 PM57.2 °F32.0 °F38 %30.05 in10.0 miNNE (30°)3.5 mphClear
2:15 PM59.0 °F32.0 °F36 %30.04 in10.0 miCalmClear
2:35 PM59.0 °F30.2 °F34 %30.04 in10.0 miCalmClear
2:55 PM59.0 °F30.2 °F34 %30.03 in10.0 miNNW (330°)5.8 mphClear
3:15 PM59.0 °F30.2 °F34 %30.03 in10.0 miNorth (360°)5.8 mphClear
3:35 PM59.0 °F28.4 °F31 %30.03 in10.0 miNNE (30°)5.8 mphClear
3:55 PM59.0 °F28.4 °F31 %30.03 in10.0 miNE (40°)5.8 mphClear
4:15 PM59.0 °F28.4 °F31 %30.03 in10.0 miCalmClear
4:35 PM59.0 °F28.4 °F31 %30.03 in10.0 miCalmClear
4:55 PM57.2 °F28.4 °F33 %30.03 in10.0 miCalmClear
5:15 PM55.4 °F30.2 °F38 %30.03 in10.0 miCalmClear
5:35 PM51.8 °F32.0 °F47 %30.03 in10.0 miCalmClear
5:55 PM46.4 °F33.8 °F62 %30.03 in10.0 miSE (140°)5.8 mphClear
6:15 PM44.6 °F33.8 °F66 %30.03 in10.0 miSSE (150°)4.6 mphClear
6:35 PM46.4 °F32.0 °F57 %30.04 in10.0 miSSE (150°)6.9 mphClear
6:55 PM46.4 °F32.0 °F57 %30.04 in10.0 miCalmClear
7:15 PM42.8 °F33.8 °F70 %30.05 in10.0 miCalmClear
7:35 PM42.8 °F33.8 °F70 %30.05 in10.0 miCalmClear
7:55 PM41.0 °F33.8 °F76 %30.06 in10.0 miCalmClear
8:15 PM44.6 °F32.0 °F61 %30.06 in10.0 miCalmClear
8:35 PM42.8 °F32.0 °F66 %30.07 in10.0 miSSE (160°)3.5 mphClear
8:55 PM41.0 °F32.0 °F70 %30.07 in10.0 miCalmClear
9:15 PM41.0 °F32.0 °F70 %30.07 in10.0 miSE (130°)3.5 mphClear
9:35 PM42.8 °F32.0 °F66 %30.08 in10.0 miESE (120°)3.5 mphClear
9:55 PM42.8 °F32.0 °F66 %30.07 in7.0 miSSE (150°)4.6 mphClear
10:15 PM44.6 °F32.0 °F61 %30.08 in10.0 miSouth (170°)5.8 mphClear
10:35 PM44.6 °F32.0 °F61 %30.08 in10.0 miSouth (170°)6.9 mphClear
10:55 PM44.6 °F32.0 °F61 %30.08 in10.0 miSouth (180°)6.9 mphClear
11:15 PM44.6 °F32.0 °F61 %30.08 in10.0 miSouth (180°)6.9 mphClear
11:35 PM44.6 °F33.8 °F66 %30.08 in7.0 miSouth (180°)6.9 mphClear
11:55 PM44.6 °F33.8 °F66 %30.07 in10.0 miSouth (180°)6.9 mphClear
Hourly data recorded from KDZB, located miles away from Dripping Springs, Texas







STORIES FROM OUR PARTNERS